QPF
0.00 0.00 0.01 0.02 0.02 0.02 0.01 0.01 0.01 0.01 0.01 0.01 0.01 0.01 0.01 0.01 0.01 0.01 0.00 0.00 0.00 0.00 0.00 0.00 0.00 0.00 0.01 0.00 0.00 0.00 0.00 0.00 0.00 0.00 0.00 0.00 0.00 0.00 0.00 0.00 0.00 0.00 0.00 0.00 0.00 0.00 0.00 0.00 0.00
0.00 0.00 0.01 0.02 0.02 0.01 0.01 0.01 0.01 0.01 0.01 0.01 0.01 0.00 0.00 0.00 0.00 0.00 0.00 0.00 0.00 0.00 0.00 0.00 0.00 0.00 0.00 0.00 0.00 0.00 0.00 0.00 0.00 0.00 0.00 0.00 0.00 0.00 0.00 0.00 0.00 0.00 0.00 0.00 0.00 0.00 0.00 0.00 0.00
0.00 0.00 0.01 0.01 0.01 0.01 0.01 0.01 0.01 0.01 0.02 0.01 0.01 0.00 0.00 0.00 0.00 0.00 0.00 0.00 0.00 0.00 0.00 0.00 0.00 0.00 0.00 0.00 0.00 0.00 0.00 0.00 0.00 0.00 0.00 0.00 0.00 0.00 0.00 0.00 0.00 0.00 0.00 0.01 0.00 0.00 0.00 0.00 0.00
0.00 0.00 0.00 0.00 0.00 0.00 0.00 0.00 0.01 0.02 0.02 0.01 0.00 0.00 0.00 0.00 0.00 0.00 0.00 0.00 0.00 0.00 0.00 0.00 0.00 0.00 0.00 0.00 0.00 0.00 0.00 0.00 0.00 0.00 0.00 0.00 0.00 0.00 0.00 0.00 0.00 0.00 0.01 0.01 0.01 0.01 0.00 0.00 0.00
0.00 0.00 0.00 0.00 0.00 0.00 0.00 0.01 0.03 0.03 0.03 0.02 0.01 0.00 0.00 0.00 0.00 0.00 0.00 0.00 0.00 0.00 0.00 0.00 0.00 0.00 0.00 0.00 0.00 0.00 0.00 0.00 0.00 0.00 0.00 0.00 0.00 0.00 0.01 0.01 0.01 0.01 0.01 0.02 0.02 0.02 0.01 0.01 0.00
0.00 0.00 0.00 0.00 0.00 0.00 0.01 0.01 0.02 0.04 0.03 0.01 0.01 0.01 0.01 0.00 0.00 0.00 0.00 0.00 0.00 0.00 0.00 0.00 0.00 0.00 0.00 0.00 0.00 0.00 0.00 0.00 0.00 0.00 0.00 0.01 0.01 0.01 0.01 0.01 0.01 0.01 0.02 0.02 0.02 0.02 0.02 0.01 0.01
0.00 0.00 0.00 0.00 0.00 0.01 0.01 0.01 0.02 0.03 0.01 0.00 0.00 0.00 0.00 0.00 0.01 0.01 0.01 0.00 0.00 0.00 0.00 0.00 0.00 0.00 0.00 0.00 0.00 0.00 0.00 0.00 0.00 0.00 0.01 0.01 0.01 0.01 0.01 0.01 0.01 0.01 0.01 0.02 0.02 0.03 0.03 0.03 0.02
0.00 0.00 0.00 0.00 0.00 0.01 0.01 0.02 0.02 0.02 0.01 0.00 0.00 0.00 0.00 0.01 0.01 0.01 0.01 0.01 0.01 0.00 0.00 0.00 0.00 0.00 0.00 0.00 0.00 0.01 0.01 0.01 0.01 0.01 0.01 0.01 0.01 0.01 0.01 0.01 0.02 0.02 0.03 0.03 0.05 0.05 0.04 0.04 0.04
0.00 0.00 0.00 0.00 0.00 0.00 0.01 0.02 0.02 0.02 0.01 0.01 0.00 0.00 0.00 0.01 0.02 0.02 0.03 0.03 0.03 0.01 0.01 0.01 0.01 0.00 0.00 0.01 0.01 0.01 0.01 0.01 0.02 0.01 0.01 0.01 0.01 0.02 0.02 0.03 0.04 0.05 0.08 0.09 0.11 0.12 0.11 0.10 0.07
0.00 0.00 0.00 0.00 0.00 0.00 0.01 0.02 0.03 0.03 0.03 0.02 0.00 0.00 0.00 0.02 0.03 0.05 0.08 0.08 0.10 0.09 0.06 0.05 0.04 0.04 0.04 0.04 0.03 0.04 0.04 0.05 0.05 0.04 0.03 0.03 0.03 0.03 0.04 0.05 0.07 0.10 0.14 0.20 0.24 0.24 0.21 0.17 0.14
0.00 0.00 0.00 0.00 0.00 0.00 0.01 0.02 0.03 0.03 0.03 0.02 0.01 0.01 0.01 0.03 0.04 0.09 0.15 0.14 0.15 0.17 0.11 0.08 0.10 0.10 0.10 0.10 0.11 0.13 0.14 0.12 0.11 0.09 0.07 0.07 0.07 0.07 0.06 0.05 0.06 0.08 0.13 0.14 0.17 0.22 0.20 0.19 0.19
0.00 0.00 0.00 0.00 0.00 0.00 0.00 0.01 0.02 0.02 0.01 0.01 0.01 0.02 0.03 0.04 0.06 0.09 0.12 0.13 0.16 0.15 0.13 0.15 0.20 0.20 0.19 0.21 0.20 0.20 0.18 0.16 0.16 0.13 0.09 0.09 0.09 0.09 0.09 0.07 0.06 0.06 0.08 0.09 0.12 0.14 0.15 0.16 0.20
0.00 0.00 0.00 0.00 0.00 0.00 0.01 0.01 0.01 0.02 0.02 0.02 0.02 0.02 0.03 0.05 0.08 0.12 0.13 0.14 0.15 0.15 0.15 0.20 0.22 0.24 0.27 0.29 0.26 0.21 0.18 0.18 0.17 0.14 0.11 0.10 0.11 0.12 0.12 0.10 0.10 0.07 0.06 0.05 0.08 0.12 0.13 0.14 0.16
0.00 0.00 0.00 0.00 0.00 0.00 0.01 0.01 0.02 0.03 0.03 0.03 0.03 0.03 0.04 0.06 0.08 0.11 0.14 0.15 0.17 0.18 0.19 0.20 0.22 0.24 0.24 0.24 0.23 0.23 0.20 0.15 0.13 0.11 0.11 0.10 0.10 0.09 0.09 0.08 0.07 0.06 0.05 0.05 0.05 0.07 0.10 0.13 0.14
0.00 0.00 0.00 0.00 0.00 0.01 0.01 0.02 0.03 0.03 0.04 0.04 0.05 0.04 0.04 0.05 0.07 0.08 0.11 0.13 0.15 0.15 0.19 0.18 0.16 0.16 0.15 0.14 0.13 0.11 0.10 0.08 0.08 0.07 0.06 0.06 0.05 0.04 0.05 0.04 0.05 0.05 0.06 0.05 0.04 0.04 0.06 0.08 0.09
0.00 0.00 0.00 0.00 0.01 0.01 0.01 0.02 0.03 0.03 0.04 0.05 0.06 0.04 0.03 0.04 0.04 0.06 0.07 0.09 0.10 0.10 0.13 0.11 0.08 0.08 0.07 0.06 0.05 0.04 0.03 0.02 0.02 0.03 0.03 0.03 0.03 0.03 0.03 0.02 0.02 0.03 0.04 0.04 0.03 0.02 0.02 0.03 0.03
0.00 0.00 0.00 0.00 0.00 0.00 0.01 0.02 0.03 0.04 0.05 0.05 0.06 0.04 0.03 0.03 0.03 0.04 0.05 0.05 0.05 0.05 0.05 0.04 0.03 0.02 0.02 0.01 0.01 0.01 0.00 0.00 0.00 0.00 0.01 0.00 0.01 0.01 0.01 0.01 0.01 0.01 0.02 0.02 0.02 0.02 0.02 0.02 0.02
0.00 0.00 0.00 0.00 0.00 0.00 0.00 0.01 0.03 0.04 0.05 0.07 0.08 0.05 0.03 0.03 0.03 0.02 0.02 0.02 0.01 0.01 0.01 0.01 0.00 0.00 0.00 0.00 0.00 0.00 0.00 0.00 0.00 0.00 0.00 0.00 0.00 0.00 0.00 0.00 0.00 0.00 0.00 0.00 0.01 0.01 0.01 0.02 0.01
0.00 0.00 0.00 0.00 0.00 0.00 0.01 0.02 0.04 0.06 0.07 0.08 0.09 0.08 0.05 0.02 0.02 0.01 0.02 0.01 0.01 0.00 0.00 0.00 0.00 0.00 0.00 0.00 0.00 0.00 0.00 0.00 0.00 0.00 0.00 0.00 0.00 0.00 0.00 0.00 0.00 0.00 0.00 0.00 0.00 0.00 0.00 0.01 0.00
0.00 0.00 0.00 0.00 0.00 0.00 0.01 0.02 0.03 0.04 0.05 0.07 0.09 0.07 0.04 0.02 0.01 0.01 0.00 0.00 0.00 0.00 0.00 0.00 0.00 0.00 0.00 0.00 0.00 0.00 0.00 0.00 0.00 0.00 0.00 0.00 0.00 0.00 0.00 0.00 0.00 0.00 0.00 0.00 0.00 0.00 0.00 0.00 0.01
0.01 0.01 0.01 0.01 0.01 0.01 0.01 0.02 0.02 0.02 0.04 0.05 0.06 0.05 0.03 0.01 0.01 0.01 0.01 0.01 0.00 0.00 0.00 0.00 0.00 0.00 0.00 0.00 0.00 0.00 0.00 0.00 0.00 0.00 0.00 0.00 0.00 0.00 0.00 0.00 0.00 0.00 0.00 0.00 0.00 0.00 0.00 0.00 0.01
0.01 0.00 0.01 0.01 0.01 0.01 0.01 0.01 0.01 0.01 0.03 0.03 0.04 0.04 0.03 0.01 0.01 0.01 0.01 0.01 0.00 0.00 0.00 0.00 0.00 0.00 0.00 0.00 0.00 0.00 0.00 0.00 0.00 0.00 0.00 0.00 0.00 0.00 0.00 0.00 0.00 0.00 0.00 0.00 0.00 0.00 0.00 0.00 0.00
0.01 0.01 0.01 0.01 0.01 0.01 0.01 0.00 0.00 0.00 0.01 0.02 0.02 0.03 0.02 0.01 0.00 0.00 0.01 0.00 0.00 0.00 0.00 0.00 0.00 0.00 0.00 0.00 0.00 0.00 0.00 0.00 0.00 0.00 0.00 0.00 0.00 0.00 0.00 0.00 0.00 0.00 0.00 0.00 0.00 0.00 0.00 0.00 0.00
0.01 0.01 0.01 0.01 0.01 0.00 0.00 0.00 0.00 0.00 0.00 0.01 0.01 0.01 0.01 0.00 0.00 0.00 0.00 0.00 0.00 0.00 0.00 0.00 0.00 0.00 0.00 0.00 0.00 0.00 0.00 0.00 0.00 0.00 0.00 0.00 0.00 0.00 0.00 0.00 0.00 0.00 0.00 0.00 0.00 0.00 0.00 0.00 0.00
0.01 0.01 0.01 0.01 0.01 0.00 0.00 0.00 0.00 0.00 0.00 0.00 0.00 0.00 0.00 0.00 0.00 0.00 0.00 0.00 0.00 0.00 0.00 0.00 0.00 0.00 0.00 0.00 0.00 0.00 0.00 0.00 0.00 0.00 0.00 0.00 0.00 0.00 0.00 0.00 0.00 0.00 0.00 0.00 0.00 0.00 0.00 0.00 0.00
0.00 0.00 0.00 0.00 0.00 0.00 0.00 0.00 0.00 0.00 0.00 0.00 0.00 0.00 0.00 0.00 0.00 0.00 0.00 0.00 0.00 0.00 0.00 0.00 0.00 0.00 0.00 0.00 0.00 0.00 0.00 0.00 0.00 0.00 0.00 0.00 0.00 0.00 0.00 0.00 0.00 0.00 0.00 0.00 0.00 0.00 0.00 0.00 0.00
0.00 0.00 0.00 0.00 0.00 0.00 0.00 0.00 0.00 0.00 0.00 0.00 0.00 0.00 0.00 0.00 0.00 0.00 0.00 0.00 0.00 0.00 0.00 0.00 0.00 0.00 0.00 0.00 0.00 0.00 0.00 0.00 0.00 0.00 0.00 0.00 0.00 0.00 0.00 0.00 0.00 0.00 0.00 0.00 0.00 0.00 0.00 0.00 0.00
0.00 0.00 0.00 0.00 0.00 0.00 0.00 0.00 0.00 0.00 0.00 0.00 0.00 0.00 0.00 0.00 0.00 0.00 0.00 0.00 0.00 0.00 0.00 0.00 0.00 0.00 0.00 0.00 0.00 0.00 0.00 0.00 0.00 0.00 0.00 0.00 0.00 0.00 0.00 0.00 0.00 0.00 0.00 0.00 0.00 0.00 0.00 0.00 0.00
0.00 0.00 0.00 0.00 0.00 0.00 0.00 0.00 0.00 0.00 0.00 0.00 0.00 0.00 0.00 0.00 0.00 0.00 0.00 0.00 0.00 0.00 0.00 0.00 0.00 0.00 0.00 0.00 0.00 0.00 0.00 0.00 0.00 0.00 0.00 0.00 0.00 0.00 0.00 0.00 0.00 0.00 0.00 0.00 0.00 0.00 0.00 0.00 0.00
0.00 0.00 0.00 0.00 0.00 0.00 0.00 0.00 0.00 0.00 0.00 0.00 0.00 0.00 0.00 0.00 0.00 0.00 0.00 0.00 0.00 0.00 0.00 0.00 0.00 0.00 0.00 0.00 0.00 0.00 0.00 0.00 0.00 0.00 0.00 0.00 0.00 0.00 0.00 0.00 0.00 0.00 0.00 0.00 0.00 0.00 0.00 0.00 0.00
MSLP
1012.36 1013.56 1014.72 1015.66 1016.20 1016.26 1015.82 1014.98 1013.88 1012.72 1011.71 1010.96 1010.57 1010.52 1010.73 1011.08 1011.45 1011.73 1011.85 1011.83 1011.71 1011.56 1011.47 1011.48 1011.64 1011.91 1012.26 1012.64 1012.98 1013.26 1013.48 1013.65 1013.80 1013.97 1014.18 1014.44 1014.72 1015.00 1015.24 1015.44 1015.56 1015.63 1015.67 1015.70 1015.74 1015.81 1015.90 1016.02 1016.12
1012.99 1014.26 1015.40 1016.21 1016.54 1016.32 1015.60 1014.49 1013.17 1011.88 1010.80 1010.06 1009.73 1009.77 1010.09 1010.54 1010.99 1011.33 1011.52 1011.55 1011.48 1011.39 1011.35 1011.43 1011.65 1011.98 1012.38 1012.80 1013.18 1013.50 1013.75 1013.95 1014.14 1014.33 1014.55 1014.79 1015.04 1015.27 1015.45 1015.57 1015.63 1015.66 1015.68 1015.72 1015.79 1015.90 1016.05 1016.20 1016.34
1013.65 1014.92 1015.95 1016.57 1016.64 1016.15 1015.18 1013.87 1012.43 1011.10 1010.05 1009.40 1009.18 1009.33 1009.73 1010.25 1010.75 1011.11 1011.31 1011.37 1011.33 1011.29 1011.32 1011.47 1011.75 1012.13 1012.57 1013.00 1013.40 1013.72 1013.98 1014.19 1014.39 1014.58 1014.79 1015.01 1015.22 1015.39 1015.52 1015.58 1015.61 1015.61 1015.63 1015.68 1015.79 1015.96 1016.15 1016.35 1016.53
1014.28 1015.46 1016.31 1016.69 1016.50 1015.78 1014.62 1013.21 1011.76 1010.49 1009.56 1009.06 1008.98 1009.25 1009.73 1010.28 1010.77 1011.11 1011.29 1011.33 1011.32 1011.32 1011.41 1011.62 1011.95 1012.37 1012.82 1013.26 1013.63 1013.92 1014.15 1014.34 1014.50 1014.68 1014.87 1015.07 1015.25 1015.39 1015.48 1015.51 1015.51 1015.51 1015.54 1015.63 1015.78 1015.98 1016.22 1016.47 1016.68
1014.79 1015.81 1016.44 1016.57 1016.15 1015.25 1014.00 1012.59 1011.23 1010.13 1009.40 1009.09 1009.17 1009.54 1010.07 1010.60 1011.04 1011.32 1011.44 1011.46 1011.46 1011.50 1011.64 1011.90 1012.28 1012.71 1013.15 1013.55 1013.86 1014.09 1014.25 1014.38 1014.50 1014.65 1014.81 1014.99 1015.16 1015.28 1015.36 1015.39 1015.39 1015.40 1015.45 1015.57 1015.75 1015.99 1016.26 1016.53 1016.76
1015.15 1015.97 1016.35 1016.24 1015.64 1014.64 1013.39 1012.08 1010.91 1010.05 1009.56 1009.47 1009.70 1010.15 1010.68 1011.16 1011.51 1011.70 1011.76 1011.75 1011.74 1011.82 1012.00 1012.31 1012.71 1013.14 1013.54 1013.86 1014.08 1014.22 1014.29 1014.34 1014.41 1014.52 1014.67 1014.84 1015.01 1015.14 1015.23 1015.27 1015.29 1015.32 1015.39 1015.52 1015.72 1015.97 1016.25 1016.52 1016.76
1015.32 1015.91 1016.07 1015.76 1015.04 1014.02 1012.86 1011.74 1010.81 1010.22 1009.99 1010.10 1010.46 1010.94 1011.44 1011.84 1012.09 1012.19 1012.18 1012.14 1012.15 1012.25 1012.49 1012.82 1013.23 1013.62 1013.95 1014.18 1014.30 1014.33 1014.30 1014.28 1014.30 1014.38 1014.52 1014.69 1014.87 1015.02 1015.12 1015.18 1015.22 1015.26 1015.34 1015.48 1015.67 1015.91 1016.17 1016.43 1016.65
1015.31 1015.68 1015.63 1015.18 1014.42 1013.45 1012.44 1011.55 1010.91 1010.58 1010.59 1010.86 1011.30 1011.79 1012.23 1012.54 1012.69 1012.70 1012.65 1012.60 1012.63 1012.77 1013.03 1013.39 1013.78 1014.12 1014.37 1014.50 1014.51 1014.44 1014.33 1014.24 1014.22 1014.28 1014.42 1014.60 1014.79 1014.95 1015.07 1015.15 1015.19 1015.24 1015.31 1015.43 1015.60 1015.81 1016.04 1016.26 1016.45
1015.12 1015.30 1015.10 1014.58 1013.83 1012.98 1012.17 1011.52 1011.14 1011.06 1011.24 1011.63 1012.10 1012.56 1012.93 1013.15 1013.21 1013.18 1013.11 1013.07 1013.13 1013.31 1013.61 1013.96 1014.32 1014.60 1014.77 1014.80 1014.72 1014.56 1014.39 1014.26 1014.21 1014.27 1014.41 1014.59 1014.79 1014.96 1015.08 1015.15 1015.19 1015.22 1015.28 1015.37 1015.51 1015.67 1015.85 1016.02 1016.17
1014.80 1014.83 1014.54 1014.01 1013.33 1012.64 1012.04 1011.63 1011.48 1011.58 1011.89 1012.32 1012.78 1013.19 1013.47 1013.62 1013.63 1013.58 1013.52 1013.52 1013.63 1013.85 1014.16 1014.50 1014.80 1015.02 1015.10 1015.06 1014.90 1014.69 1014.49 1014.34 1014.30 1014.35 1014.49 1014.68 1014.87 1015.02 1015.13 1015.18 1015.20 1015.21 1015.23 1015.29 1015.38 1015.51 1015.63 1015.75 1015.86
1014.39 1014.33 1014.01 1013.53 1012.97 1012.46 1012.07 1011.87 1011.89 1012.11 1012.47 1012.90 1013.31 1013.64 1013.86 1013.94 1013.94 1013.90 1013.88 1013.94 1014.09 1014.34 1014.64 1014.95 1015.20 1015.34 1015.36 1015.25 1015.05 1014.83 1014.62 1014.49 1014.45 1014.52 1014.65 1014.82 1014.99 1015.11 1015.18 1015.20 1015.19 1015.18 1015.18 1015.20 1015.26 1015.34 1015.42 1015.49 1015.55
1013.98 1013.88 1013.59 1013.20 1012.79 1012.46 1012.26 1012.23 1012.36 1012.64 1013.00 1013.38 1013.71 1013.96 1014.10 1014.16 1014.17 1014.16 1014.20 1014.31 1014.50 1014.75 1015.03 1015.29 1015.47 1015.54 1015.50 1015.36 1015.16 1014.95 1014.77 1014.67 1014.66 1014.72 1014.85 1014.99 1015.11 1015.19 1015.22 1015.21 1015.17 1015.14 1015.12 1015.13 1015.16 1015.21 1015.25 1015.28 1015.28
1013.64 1013.55 1013.33 1013.06 1012.82 1012.66 1012.62 1012.71 1012.91 1013.19 1013.50 1013.78 1014.02 1014.19 1014.28 1014.33 1014.35 1014.40 1014.49 1014.64 1014.84 1015.08 1015.31 1015.50 1015.61 1015.62 1015.55 1015.40 1015.22 1015.05 1014.92 1014.86 1014.87 1014.94 1015.04 1015.14 1015.21 1015.24 1015.23 1015.19 1015.14 1015.10 1015.08 1015.09 1015.11 1015.14 1015.14 1015.12 1015.07
1013.44 1013.39 1013.26 1013.14 1013.06 1013.07 1013.16 1013.33 1013.54 1013.78 1014.00 1014.18 1014.31 1014.39 1014.45 1014.49 1014.54 1014.63 1014.76 1014.93 1015.12 1015.31 1015.47 1015.58 1015.62 1015.59 1015.50 1015.37 1015.24 1015.13 1015.07 1015.05 1015.08 1015.14 1015.20 1015.24 1015.26 1015.24 1015.20 1015.14 1015.10 1015.07 1015.07 1015.09 1015.11 1015.12 1015.10 1015.03 1014.92
1013.42 1013.42 1013.40 1013.42 1013.50 1013.64 1013.83 1014.04 1014.24 1014.40 1014.51 1014.58 1014.60 1014.61 1014.63 1014.67 1014.76 1014.87 1015.02 1015.18 1015.33 1015.45 1015.53 1015.56 1015.53 1015.48 1015.40 1015.32 1015.26 1015.22 1015.22 1015.24 1015.28 1015.31 1015.32 1015.30 1015.26 1015.20 1015.13 1015.08 1015.05 1015.06 1015.08 1015.12 1015.15 1015.15 1015.10 1014.98 1014.80
1013.54 1013.61 1013.70 1013.86 1014.08 1014.34 1014.60 1014.83 1014.98 1015.05 1015.05 1014.99 1014.91 1014.85 1014.84 1014.88 1014.97 1015.11 1015.25 1015.38 1015.48 1015.52 1015.51 1015.47 1015.40 1015.34 1015.29 1015.28 1015.30 1015.34 1015.40 1015.45 1015.48 1015.47 1015.42 1015.34 1015.23 1015.13 1015.05 1015.01 1015.01 1015.06 1015.12 1015.18 1015.22 1015.20 1015.11 1014.94 1014.71
1013.77 1013.90 1014.11 1014.40 1014.75 1015.10 1015.41 1015.63 1015.72 1015.68 1015.55 1015.37 1015.20 1015.07 1015.03 1015.06 1015.16 1015.30 1015.43 1015.52 1015.55 1015.52 1015.45 1015.35 1015.27 1015.22 1015.23 1015.30 1015.40 1015.52 1015.63 1015.70 1015.70 1015.63 1015.51 1015.36 1015.20 1015.06 1014.97 1014.95 1014.98 1015.06 1015.15 1015.23 1015.26 1015.23 1015.10 1014.89 1014.61
1014.00 1014.22 1014.55 1014.97 1015.43 1015.87 1016.21 1016.39 1016.41 1016.25 1015.99 1015.69 1015.42 1015.23 1015.14 1015.17 1015.27 1015.40 1015.52 1015.58 1015.56 1015.48 1015.36 1015.24 1015.16 1015.16 1015.24 1015.39 1015.58 1015.77 1015.91 1015.98 1015.94 1015.82 1015.62 1015.39 1015.17 1015.00 1014.90 1014.89 1014.95 1015.05 1015.16 1015.25 1015.27 1015.21 1015.05 1014.81 1014.49
1014.17 1014.49 1014.95 1015.51 1016.09 1016.60 1016.95 1017.09 1017.01 1016.73 1016.33 1015.90 1015.53 1015.26 1015.15 1015.16 1015.26 1015.40 1015.51 1015.55 1015.51 1015.40 1015.27 1015.15 1015.10 1015.16 1015.31 1015.54 1015.81 1016.06 1016.23 1016.28 1016.21 1016.01 1015.74 1015.44 1015.17 1014.96 1014.85 1014.84 1014.91 1015.02 1015.14 1015.21 1015.21 1015.13 1014.95 1014.69 1014.37
1014.22 1014.68 1015.30 1016.01 1016.71 1017.28 1017.63 1017.71 1017.51 1017.09 1016.54 1015.98 1015.50 1015.16 1015.01 1015.01 1015.12 1015.28 1015.40 1015.45 1015.41 1015.31 1015.18 1015.09 1015.09 1015.20 1015.43 1015.74 1016.06 1016.35 1016.53 1016.57 1016.45 1016.21 1015.87 1015.52 1015.19 1014.95 1014.82 1014.80 1014.86 1014.96 1015.06 1015.12 1015.10 1014.99 1014.81 1014.55 1014.26
1014.17 1014.80 1015.60 1016.47 1017.28 1017.91 1018.25 1018.25 1017.93 1017.35 1016.65 1015.94 1015.34 1014.93 1014.73 1014.73 1014.86 1015.05 1015.20 1015.29 1015.28 1015.20 1015.11 1015.05 1015.10 1015.26 1015.55 1015.91 1016.28 1016.59 1016.78 1016.80 1016.65 1016.36 1015.98 1015.59 1015.23 1014.96 1014.81 1014.77 1014.80 1014.88 1014.95 1014.97 1014.93 1014.81 1014.63 1014.41 1014.16
1014.08 1014.90 1015.90 1016.93 1017.86 1018.53 1018.84 1018.75 1018.29 1017.55 1016.68 1015.81 1015.09 1014.60 1014.37 1014.37 1014.52 1014.75 1014.96 1015.09 1015.13 1015.10 1015.04 1015.02 1015.10 1015.30 1015.61 1015.99 1016.38 1016.70 1016.89 1016.91 1016.75 1016.44 1016.05 1015.63 1015.26 1014.98 1014.80 1014.74 1014.74 1014.78 1014.81 1014.79 1014.72 1014.60 1014.44 1014.27 1014.09
1014.02 1015.05 1016.23 1017.42 1018.45 1019.14 1019.41 1019.23 1018.62 1017.71 1016.67 1015.66 1014.82 1014.25 1013.98 1013.98 1014.17 1014.44 1014.71 1014.90 1015.00 1015.01 1014.99 1014.99 1015.08 1015.28 1015.59 1015.97 1016.35 1016.66 1016.85 1016.87 1016.71 1016.42 1016.04 1015.63 1015.27 1014.98 1014.79 1014.70 1014.67 1014.66 1014.64 1014.59 1014.50 1014.38 1014.25 1014.13 1014.02
1014.08 1015.29 1016.64 1017.96 1019.04 1019.75 1019.96 1019.66 1018.91 1017.84 1016.64 1015.50 1014.56 1013.93 1013.63 1013.64 1013.86 1014.19 1014.52 1014.77 1014.91 1014.96 1014.95 1014.96 1015.03 1015.20 1015.47 1015.81 1016.16 1016.45 1016.63 1016.66 1016.53 1016.27 1015.93 1015.57 1015.23 1014.96 1014.76 1014.65 1014.58 1014.53 1014.47 1014.38 1014.28 1014.15 1014.05 1013.97 1013.94
1014.29 1015.64 1017.11 1018.49 1019.60 1020.28 1020.41 1020.01 1019.13 1017.93 1016.60 1015.36 1014.35 1013.67 1013.36 1013.39 1013.65 1014.02 1014.40 1014.71 1014.89 1014.96 1014.95 1014.93 1014.96 1015.07 1015.27 1015.55 1015.84 1016.10 1016.27 1016.31 1016.22 1016.01 1015.73 1015.42 1015.13 1014.88 1014.70 1014.57 1014.47 1014.38 1014.28 1014.16 1014.03 1013.91 1013.82 1013.78 1013.79
1014.63 1016.05 1017.56 1018.95 1020.03 1020.64 1020.69 1020.18 1019.21 1017.91 1016.52 1015.22 1014.18 1013.49 1013.20 1013.25 1013.55 1013.97 1014.40 1014.74 1014.94 1015.01 1014.99 1014.93 1014.89 1014.92 1015.04 1015.23 1015.45 1015.66 1015.81 1015.86 1015.80 1015.65 1015.44 1015.19 1014.95 1014.74 1014.57 1014.44 1014.32 1014.20 1014.06 1013.92 1013.77 1013.64 1013.55 1013.52 1013.56
1015.02 1016.42 1017.89 1019.22 1020.22 1020.73 1020.69 1020.10 1019.07 1017.74 1016.34 1015.05 1014.03 1013.39 1013.13 1013.22 1013.56 1014.02 1014.48 1014.84 1015.06 1015.13 1015.07 1014.96 1014.85 1014.79 1014.80 1014.90 1015.04 1015.18 1015.30 1015.35 1015.33 1015.22 1015.06 1014.88 1014.69 1014.52 1014.37 1014.23 1014.10 1013.96 1013.80 1013.63 1013.47 1013.32 1013.23 1013.19 1013.22
1015.35 1016.67 1018.02 1019.21 1020.07 1020.47 1020.34 1019.71 1018.67 1017.37 1016.03 1014.81 1013.88 1013.31 1013.13 1013.28 1013.66 1014.15 1014.63 1015.00 1015.22 1015.27 1015.18 1015.02 1014.83 1014.69 1014.61 1014.60 1014.66 1014.74 1014.81 1014.84 1014.82 1014.75 1014.64 1014.50 1014.35 1014.21 1014.08 1013.95 1013.81 1013.66 1013.48 1013.30 1013.12 1012.96 1012.84 1012.79 1012.79
1015.53 1016.69 1017.85 1018.86 1019.55 1019.82 1019.62 1018.97 1017.98 1016.78 1015.57 1014.50 1013.70 1013.26 1013.16 1013.37 1013.80 1014.31 1014.79 1015.16 1015.36 1015.40 1015.28 1015.08 1014.84 1014.63 1014.47 1014.38 1014.34 1014.35 1014.37 1014.37 1014.34 1014.27 1014.17 1014.05 1013.93 1013.81 1013.69 1013.56 1013.42 1013.27 1013.09 1012.90 1012.71 1012.54 1012.40 1012.32 1012.29
1015.53 1016.47 1017.41 1018.19 1018.69 1018.83 1018.58 1017.96 1017.06 1016.02 1014.99 1014.11 1013.49 1013.19 1013.20 1013.47 1013.92 1014.44 1014.91 1015.26 1015.45 1015.46 1015.33 1015.10 1014.83 1014.57 1014.36 1014.20 1014.10 1014.04 1014.00 1013.95 1013.88 1013.79 1013.69 1013.57 1013.45 1013.33 1013.22 1013.09 1012.96 1012.81 1012.63 1012.44 1012.25 1012.07 1011.92 1011.80 1011.74
Thickness
5811 5808 5805 5794 5775 5762 5763 5781 5796 5805 5810 5821 5826 5820 5810 5801 5795 5789 5805 5813 5811 5806 5801 5797 5794 5791 5789 5787 5784 5782 5780 5778 5777 5775 5774 5772 5770 5769 5767 5766 5764 5763 5762 5761 5760 5759 5757 5756 5755
5810 5806 5797 5782 5764 5755 5769 5793 5801 5809 5819 5826 5825 5819 5809 5803 5807 5806 5808 5810 5809 5804 5800 5796 5793 5790 5787 5785 5783 5781 5778 5776 5774 5773 5771 5769 5767 5766 5764 5763 5762 5760 5760 5758 5757 5756 5755 5754 5753
5808 5804 5784 5769 5759 5758 5776 5801 5809 5818 5825 5823 5817 5816 5809 5803 5809 5809 5812 5812 5807 5802 5797 5794 5791 5788 5785 5783 5781 5778 5776 5774 5772 5770 5768 5766 5764 5763 5761 5760 5759 5758 5757 5756 5755 5754 5753 5751 5750
5803 5789 5776 5760 5757 5773 5789 5805 5814 5815 5819 5820 5814 5805 5807 5812 5814 5813 5814 5811 5805 5799 5795 5791 5788 5785 5783 5781 5778 5776 5774 5771 5769 5767 5765 5764 5762 5760 5759 5758 5756 5755 5754 5753 5752 5751 5750 5748 5747
5797 5778 5761 5751 5759 5782 5801 5812 5817 5809 5807 5810 5809 5797 5795 5807 5813 5812 5810 5807 5802 5796 5792 5788 5785 5782 5780 5777 5776 5774 5772 5769 5767 5765 5763 5762 5760 5758 5757 5755 5754 5752 5751 5750 5749 5748 5747 5745 5744
5782 5769 5751 5746 5762 5787 5801 5810 5812 5805 5804 5805 5802 5793 5790 5802 5804 5804 5804 5801 5798 5793 5789 5785 5782 5779 5777 5774 5772 5770 5769 5767 5765 5763 5761 5760 5758 5756 5755 5753 5752 5750 5748 5747 5746 5745 5743 5742 5741
5773 5760 5751 5754 5762 5778 5795 5805 5801 5797 5794 5796 5801 5787 5788 5795 5799 5800 5798 5795 5792 5788 5784 5781 5778 5775 5773 5770 5769 5767 5765 5764 5762 5760 5759 5757 5756 5754 5753 5751 5749 5748 5746 5745 5744 5742 5741 5739 5738
5779 5759 5754 5752 5761 5773 5791 5798 5798 5793 5791 5800 5799 5784 5780 5790 5795 5794 5790 5787 5785 5782 5779 5776 5774 5771 5768 5766 5764 5762 5761 5760 5759 5757 5756 5754 5753 5752 5751 5749 5748 5746 5745 5743 5741 5739 5738 5737 5736
5778 5751 5742 5754 5764 5774 5788 5788 5792 5795 5790 5790 5790 5789 5791 5792 5789 5784 5780 5777 5776 5774 5772 5770 5768 5765 5763 5761 5759 5758 5757 5756 5754 5753 5752 5751 5750 5749 5747 5746 5745 5743 5742 5741 5739 5738 5736 5735 5733
5763 5741 5751 5769 5777 5779 5783 5783 5783 5781 5775 5774 5778 5784 5788 5785 5780 5775 5771 5768 5766 5765 5764 5762 5761 5759 5757 5756 5754 5752 5751 5750 5750 5748 5747 5746 5745 5744 5743 5742 5741 5740 5739 5738 5737 5736 5735 5733 5731
5760 5751 5763 5774 5781 5782 5778 5776 5778 5770 5760 5763 5766 5770 5775 5773 5770 5767 5764 5762 5759 5759 5759 5756 5756 5753 5751 5749 5747 5745 5743 5743 5743 5742 5741 5741 5740 5739 5738 5737 5736 5736 5735 5734 5733 5733 5732 5731 5729
5756 5761 5768 5774 5780 5778 5773 5770 5763 5761 5759 5767 5767 5768 5767 5764 5760 5758 5756 5754 5753 5752 5751 5751 5749 5747 5744 5742 5740 5738 5738 5737 5737 5736 5736 5735 5734 5733 5732 5731 5731 5730 5729 5729 5728 5728 5728 5727 5727
5754 5760 5767 5771 5773 5772 5769 5761 5757 5753 5760 5763 5762 5760 5758 5756 5753 5751 5750 5748 5747 5745 5744 5743 5743 5741 5738 5735 5733 5731 5731 5731 5731 5731 5731 5730 5729 5728 5727 5725 5724 5724 5723 5723 5723 5723 5722 5722 5722
5756 5758 5760 5763 5765 5764 5758 5753 5752 5748 5755 5754 5752 5750 5749 5748 5747 5744 5743 5741 5739 5738 5737 5737 5736 5734 5732 5729 5727 5727 5726 5725 5725 5725 5724 5723 5723 5722 5720 5719 5718 5717 5716 5716 5716 5716 5716 5717 5717
5758 5751 5750 5753 5756 5754 5753 5739 5740 5746 5749 5746 5745 5743 5742 5741 5741 5739 5737 5735 5734 5732 5732 5732 5730 5729 5727 5725 5722 5721 5720 5719 5719 5717 5717 5716 5715 5714 5713 5711 5710 5709 5709 5709 5709 5709 5710 5711 5711
5750 5738 5731 5744 5749 5750 5742 5723 5736 5743 5742 5738 5738 5737 5735 5733 5734 5734 5733 5731 5730 5728 5727 5726 5726 5723 5721 5719 5717 5715 5714 5713 5712 5710 5709 5708 5707 5706 5704 5703 5702 5701 5701 5701 5701 5702 5702 5703 5704
5731 5724 5726 5736 5745 5745 5736 5723 5733 5737 5736 5732 5731 5730 5729 5727 5728 5729 5730 5729 5726 5724 5722 5720 5719 5717 5715 5712 5710 5708 5706 5705 5704 5703 5701 5700 5699 5697 5696 5694 5694 5693 5693 5693 5693 5693 5694 5695 5697
5725 5726 5726 5728 5737 5735 5726 5722 5728 5730 5728 5725 5724 5722 5722 5722 5723 5726 5726 5725 5723 5720 5718 5716 5713 5711 5708 5706 5703 5700 5699 5697 5696 5694 5693 5692 5690 5689 5688 5687 5686 5685 5684 5684 5684 5684 5685 5687 5689
5741 5732 5726 5729 5736 5728 5719 5715 5718 5721 5719 5717 5716 5716 5716 5719 5722 5723 5723 5722 5718 5715 5713 5710 5707 5705 5702 5699 5696 5693 5690 5689 5688 5686 5685 5684 5682 5681 5680 5679 5678 5677 5675 5675 5675 5675 5676 5678 5681
5742 5731 5725 5727 5733 5724 5713 5712 5715 5715 5713 5713 5713 5712 5714 5716 5718 5719 5720 5719 5716 5713 5710 5707 5704 5701 5698 5695 5691 5688 5684 5681 5679 5678 5677 5675 5674 5673 5672 5671 5670 5669 5668 5667 5667 5667 5667 5668 5671
5740 5733 5727 5722 5723 5719 5714 5706 5706 5710 5711 5712 5713 5714 5715 5716 5717 5718 5719 5717 5715 5712 5709 5707 5703 5699 5695 5692 5687 5683 5678 5675 5672 5671 5669 5668 5667 5666 5665 5664 5663 5662 5661 5659 5659 5659 5659 5659 5661
5734 5743 5737 5726 5711 5697 5703 5688 5700 5702 5703 5709 5712 5714 5716 5718 5720 5719 5718 5717 5715 5713 5710 5706 5701 5697 5693 5688 5682 5676 5671 5666 5665 5662 5661 5660 5659 5658 5657 5657 5656 5655 5653 5652 5652 5652 5651 5651 5651
5739 5743 5733 5721 5706 5694 5693 5684 5689 5699 5701 5708 5713 5717 5720 5722 5722 5721 5720 5719 5717 5713 5708 5704 5699 5693 5688 5683 5677 5671 5666 5662 5659 5656 5654 5653 5652 5651 5650 5649 5648 5647 5646 5645 5644 5644 5643 5643 5643
5745 5733 5720 5706 5696 5683 5686 5680 5684 5696 5705 5711 5718 5721 5724 5725 5725 5723 5721 5718 5714 5711 5706 5700 5694 5689 5683 5677 5672 5666 5661 5657 5653 5651 5648 5647 5645 5644 5643 5642 5640 5639 5638 5637 5637 5636 5636 5635 5635
5738 5714 5691 5687 5675 5678 5687 5682 5687 5711 5717 5718 5721 5723 5726 5726 5723 5720 5717 5714 5710 5706 5701 5695 5689 5683 5678 5672 5667 5662 5657 5653 5649 5646 5643 5641 5639 5637 5636 5634 5632 5631 5630 5629 5628 5627 5627 5627 5627
5731 5718 5692 5682 5676 5678 5686 5683 5701 5723 5727 5727 5726 5726 5726 5724 5721 5719 5716 5711 5707 5702 5696 5690 5683 5677 5672 5667 5663 5658 5654 5649 5646 5643 5639 5636 5633 5631 5629 5627 5624 5622 5621 5620 5619 5618 5618 5618 5618
5729 5717 5713 5688 5682 5677 5683 5693 5711 5728 5728 5727 5726 5725 5723 5721 5719 5716 5712 5707 5702 5697 5691 5685 5678 5673 5668 5664 5659 5655 5651 5647 5643 5639 5635 5632 5629 5626 5624 5620 5617 5614 5612 5610 5609 5608 5608 5608 5609
5742 5720 5700 5687 5675 5674 5684 5689 5696 5718 5724 5727 5725 5723 5721 5718 5715 5712 5707 5702 5696 5691 5685 5679 5674 5668 5665 5661 5656 5653 5648 5644 5640 5635 5631 5627 5624 5620 5617 5614 5610 5607 5604 5602 5600 5599 5598 5599 5600
5735 5720 5700 5685 5685 5672 5670 5685 5718 5723 5728 5726 5725 5723 5719 5715 5712 5707 5701 5695 5690 5685 5679 5674 5670 5665 5661 5657 5653 5648 5644 5640 5635 5630 5627 5623 5619 5615 5611 5607 5603 5600 5597 5595 5592 5590 5590 5590 5591
5745 5732 5709 5698 5687 5677 5674 5689 5733 5730 5730 5727 5725 5722 5718 5713 5707 5700 5694 5689 5684 5679 5675 5671 5667 5662 5659 5654 5650 5645 5640 5635 5630 5626 5622 5618 5613 5609 5604 5600 5596 5593 5591 5588 5585 5583 5583 5582 5582